Time,TemperatureF,DewpointF,PressureIn,WindDirection,WindDirectionDegrees,WindSpeedMPH,WindSpeedGustMPH,Humidity,HourlyPrecipIn,Conditions,Clouds,dailyrainin,SoftwareType,DateUTC
2014-02-02 00:06:00,38.4,29.0,29.97,SSE,148,8.0,12.0,68,0.00,,,0.00,weatherlink.com 1.10,2014-02-02 05:06:00,
2014-02-02 00:21:00,38.4,29.0,29.96,WSW,254,5.0,13.0,70,0.00,,,0.00,weatherlink.com 1.10,2014-02-02 05:21:00,
2014-02-02 00:36:00,38.5,30.0,29.95,SSE,147,4.0,14.0,71,0.00,,,0.00,weatherlink.com 1.10,2014-02-02 05:36:00,
2014-02-02 00:51:00,38.7,30.0,29.95,SSW,211,5.0,12.0,71,0.00,,,0.00,weatherlink.com 1.10,2014-02-02 05:51:00,
2014-02-02 01:06:00,38.5,31.0,29.94,South,173,3.0,12.0,73,0.00,,,0.00,weatherlink.com 1.10,2014-02-02 06:06:00,
2014-02-02 01:21:00,38.2,31.0,29.93,South,188,1.0,9.0,75,0.00,,,0.00,weatherlink.com 1.10,2014-02-02 06:21:00,
2014-02-02 01:37:00,38.0,31.0,29.92,South,176,5.0,11.0,76,0.00,,,0.00,weatherlink.com 1.10,2014-02-02 06:37:00,
2014-02-02 01:52:00,37.7,31.0,29.92,South,185,4.0,8.0,78,0.00,,,0.00,weatherlink.com 1.10,2014-02-02 06:52:00,
2014-02-02 02:07:00,37.7,31.0,29.90,South,188,4.0,12.0,78,0.00,,,0.00,weatherlink.com 1.10,2014-02-02 07:07:00,
2014-02-02 02:22:00,37.7,32.0,29.90,South,186,5.0,12.0,79,0.00,,,0.00,weatherlink.com 1.10,2014-02-02 07:22:00,
2014-02-02 02:37:00,38.2,33.0,29.89,South,191,6.0,10.0,80,0.00,,,0.00,weatherlink.com 1.10,2014-02-02 07:37:00,
2014-02-02 02:52:00,38.4,33.0,29.90,SSE,154,3.0,6.0,80,0.00,,,0.00,weatherlink.com 1.10,2014-02-02 07:52:00,
2014-02-02 03:07:00,38.5,33.0,29.89,SSE,161,6.0,7.0,81,0.00,,,0.00,weatherlink.com 1.10,2014-02-02 08:07:00,
2014-02-02 03:22:00,38.6,34.0,29.88,SW,236,2.0,6.0,82,0.00,,,0.00,weatherlink.com 1.10,2014-02-02 08:22:00,
2014-02-02 03:37:00,38.8,34.0,29.88,SSE,163,6.0,9.0,83,0.00,,,0.00,weatherlink.com 1.10,2014-02-02 08:37:00,
2014-02-02 03:52:00,38.8,34.0,29.88,WSW,250,2.0,8.0,83,0.00,,,0.00,weatherlink.com 1.10,2014-02-02 08:52:00,
2014-02-02 04:07:00,39.1,34.0,29.88,SW,234,0.0,9.0,83,0.00,,,0.00,weatherlink.com 1.10,2014-02-02 09:07:00,
2014-02-02 04:22:00,38.9,34.0,29.88,SSW,209,1.0,8.0,83,0.00,,,0.00,weatherlink.com 1.10,2014-02-02 09:22:00,
2014-02-02 04:37:00,38.7,34.0,29.88,SSW,192,0.0,5.0,83,0.00,,,0.00,weatherlink.com 1.10,2014-02-02 09:37:00,
2014-02-02 04:52:00,38.4,34.0,29.88,SSW,210,1.0,2.0,84,0.00,,,0.00,weatherlink.com 1.10,2014-02-02 09:52:00,
2014-02-02 05:07:00,37.8,34.0,29.88,SSW,211,0.0,2.0,85,0.00,,,0.00,weatherlink.com 1.10,2014-02-02 10:07:00,
2014-02-02 05:22:00,37.8,34.0,29.87,SW,215,2.0,5.0,85,0.00,,,0.00,weatherlink.com 1.10,2014-02-02 10:22:00,
2014-02-02 05:37:00,37.9,34.0,29.86,WSW,241,3.0,5.0,85,0.00,,,0.00,weatherlink.com 1.10,2014-02-02 10:37:00,
2014-02-02 05:52:00,37.9,34.0,29.85,South,188,2.0,5.0,85,0.00,,,0.00,weatherlink.com 1.10,2014-02-02 10:52:00,
2014-02-02 06:07:00,37.9,34.0,29.85,SSW,211,2.0,4.0,85,0.00,,,0.00,weatherlink.com 1.10,2014-02-02 11:07:00,
2014-02-02 06:22:00,38.1,33.0,29.86,WSW,250,2.0,4.0,83,0.00,,,0.00,weatherlink.com 1.10,2014-02-02 11:22:00,
2014-02-02 06:37:00,37.8,33.0,29.85,South,188,1.0,3.0,83,0.00,,,0.00,weatherlink.com 1.10,2014-02-02 11:37:00,
2014-02-02 06:52:00,38.0,33.0,29.86,SW,234,2.0,8.0,83,0.00,,,0.00,weatherlink.com 1.10,2014-02-02 11:52:00,
2014-02-02 07:07:00,38.2,33.0,29.86,WSW,247,0.0,4.0,82,0.00,,,0.00,weatherlink.com 1.10,2014-02-02 12:07:00,
2014-02-02 07:22:00,37.8,33.0,29.87,NW,319,0.0,2.0,82,0.00,,,0.00,weatherlink.com 1.10,2014-02-02 12:22:00,
2014-02-02 07:37:00,37.2,33.0,29.87,WNW,298,0.0,2.0,84,0.00,,,0.00,weatherlink.com 1.10,2014-02-02 12:37:00,
2014-02-02 07:52:00,37.0,33.0,29.88,WNW,298,0.0,2.0,85,0.00,,,0.00,weatherlink.com 1.10,2014-02-02 12:52:00,
2014-02-02 08:07:00,37.1,33.0,29.88,NW,310,2.0,3.0,84,0.00,,,0.00,weatherlink.com 1.10,2014-02-02 13:07:00,
2014-02-02 08:22:00,37.1,33.0,29.89,NW,325,1.0,3.0,84,0.00,,,0.00,weatherlink.com 1.10,2014-02-02 13:22:00,
2014-02-02 08:37:00,37.7,33.0,29.89,WNW,284,2.0,4.0,83,0.00,,,0.00,weatherlink.com 1.10,2014-02-02 13:37:00,
2014-02-02 08:52:00,38.5,33.0,29.90,WNW,284,2.0,2.0,82,0.00,,,0.00,weatherlink.com 1.10,2014-02-02 13:52:00,
2014-02-02 09:07:00,38.9,34.0,29.89,NNW,336,1.0,2.0,81,0.00,,,0.00,weatherlink.com 1.10,2014-02-02 14:07:00,
2014-02-02 09:22:00,38.9,34.0,29.90,NE,51,0.0,2.0,81,0.00,,,0.00,weatherlink.com 1.10,2014-02-02 14:22:00,
2014-02-02 09:37:00,39.1,34.0,29.90,NE,51,0.0,1.0,81,0.00,,,0.00,weatherlink.com 1.10,2014-02-02 14:37:00,
2014-02-02 09:52:00,39.5,34.0,29.90,North,360,2.0,3.0,80,0.00,,,0.00,weatherlink.com 1.10,2014-02-02 14:52:00,
2014-02-02 10:07:00,40.1,34.0,29.90,NW,321,0.0,2.0,79,0.00,,,0.00,weatherlink.com 1.10,2014-02-02 15:07:00,
2014-02-02 10:22:00,40.7,34.0,29.91,WNW,296,2.0,3.0,77,0.00,,,0.00,weatherlink.com 1.10,2014-02-02 15:22:00,
2014-02-02 10:37:00,40.0,33.0,29.92,NW,322,3.0,5.0,77,0.00,,,0.00,weatherlink.com 1.10,2014-02-02 15:37:00,
2014-02-02 10:52:00,39.6,33.0,29.92,WNW,293,2.0,5.0,78,0.00,,,0.00,weatherlink.com 1.10,2014-02-02 15:52:00,
2014-02-02 11:07:00,39.9,34.0,29.93,NW,306,1.0,9.0,78,0.00,,,0.00,weatherlink.com 1.10,2014-02-02 16:07:00,
2014-02-02 11:22:00,40.0,33.0,29.92,NNW,348,1.0,3.0,77,0.00,,,0.00,weatherlink.com 1.10,2014-02-02 16:22:00,
2014-02-02 11:37:00,40.1,33.0,29.92,NNW,348,2.0,2.0,77,0.00,,,0.00,weatherlink.com 1.10,2014-02-02 16:37:00,
2014-02-02 11:52:00,40.1,33.0,29.93,North,355,1.0,3.0,77,0.00,,,0.00,weatherlink.com 1.10,2014-02-02 16:52:00,
2014-02-02 12:07:00,40.0,34.0,29.92,North,355,1.0,2.0,78,0.00,,,0.00,weatherlink.com 1.10,2014-02-02 17:07:00,
2014-02-02 12:22:00,39.6,35.0,29.92,North,355,0.0,1.0,84,0.01,,,0.01,weatherlink.com 1.10,2014-02-02 17:22:00,
2014-02-02 12:37:00,38.9,35.0,29.92,North,355,1.0,1.0,87,0.04,,,0.04,weatherlink.com 1.10,2014-02-02 17:37:00,
2014-02-02 12:52:00,38.6,36.0,29.93,North,355,0.0,0.0,89,0.06,,,0.06,weatherlink.com 1.10,2014-02-02 17:52:00,
2014-02-02 13:07:00,38.5,36.0,29.92,North,355,1.0,1.0,90,0.07,,,0.07,weatherlink.com 1.10,2014-02-02 18:07:00,
2014-02-02 13:22:00,38.5,36.0,29.91,North,355,0.0,2.0,92,0.06,,,0.07,weatherlink.com 1.10,2014-02-02 18:22:00,
2014-02-02 13:37:00,38.7,37.0,29.91,North,355,0.0,1.0,92,0.03,,,0.07,weatherlink.com 1.10,2014-02-02 18:37:00,
2014-02-02 13:52:00,38.8,37.0,29.90,North,355,0.0,1.0,92,0.01,,,0.07,weatherlink.com 1.10,2014-02-02 18:52:00,
2014-02-02 14:07:00,39.1,37.0,29.92,North,355,1.0,2.0,90,0.00,,,0.07,weatherlink.com 1.10,2014-02-02 19:07:00,
2014-02-02 14:22:00,39.2,37.0,29.93,North,5,1.0,3.0,91,0.00,,,0.07,weatherlink.com 1.10,2014-02-02 19:22:00,
2014-02-02 14:37:00,38.8,36.0,29.93,North,5,2.0,3.0,91,0.00,,,0.07,weatherlink.com 1.10,2014-02-02 19:37:00,
2014-02-02 14:53:00,38.7,37.0,29.94,North,355,0.0,2.0,92,0.00,,,0.07,weatherlink.com 1.10,2014-02-02 19:53:00,
2014-02-02 15:08:00,38.6,37.0,29.93,NNE,12,2.0,2.0,93,0.00,,,0.07,weatherlink.com 1.10,2014-02-02 20:08:00,
2014-02-02 15:23:00,38.5,37.0,29.93,NE,53,2.0,4.0,93,0.00,,,0.07,weatherlink.com 1.10,2014-02-02 20:23:00,
2014-02-02 15:38:00,38.2,36.0,29.95,NNE,32,1.0,3.0,93,0.00,,,0.07,weatherlink.com 1.10,2014-02-02 20:38:00,
2014-02-02 15:53:00,37.9,36.0,29.97,NE,49,1.0,3.0,94,0.00,,,0.07,weatherlink.com 1.10,2014-02-02 20:53:00,
2014-02-02 16:08:00,37.8,36.0,29.98,ENE,67,2.0,3.0,94,0.00,,,0.07,weatherlink.com 1.10,2014-02-02 21:08:00,
2014-02-02 16:23:00,37.7,36.0,29.97,East,100,3.0,4.0,94,0.00,,,0.07,weatherlink.com 1.10,2014-02-02 21:23:00,
2014-02-02 16:38:00,37.7,36.0,29.99,NE,53,3.0,8.0,93,0.00,,,0.07,weatherlink.com 1.10,2014-02-02 21:38:00,
2014-02-02 16:53:00,37.5,35.0,29.98,ENE,71,3.0,7.0,91,0.00,,,0.07,weatherlink.com 1.10,2014-02-02 21:53:00,
2014-02-02 17:08:00,37.3,35.0,29.98,NE,37,2.0,10.0,91,0.00,,,0.07,weatherlink.com 1.10,2014-02-02 22:08:00,
2014-02-02 17:23:00,37.0,35.0,29.98,NNE,31,3.0,8.0,91,0.00,,,0.07,weatherlink.com 1.10,2014-02-02 22:23:00,
2014-02-02 17:38:00,36.8,34.0,29.99,ENE,58,3.0,6.0,90,0.00,,,0.07,weatherlink.com 1.10,2014-02-02 22:38:00,
2014-02-02 17:53:00,36.6,34.0,29.99,NNE,15,2.0,4.0,90,0.00,,,0.07,weatherlink.com 1.10,2014-02-02 22:53:00,
2014-02-02 18:08:00,36.4,34.0,30.00,NNE,30,2.0,4.0,90,0.00,,,0.07,weatherlink.com 1.10,2014-02-02 23:08:00,
2014-02-02 18:23:00,36.4,34.0,30.02,NE,46,2.0,4.0,90,0.00,,,0.07,weatherlink.com 1.10,2014-02-02 23:23:00,
2014-02-02 18:38:00,36.3,34.0,30.02,ENE,59,2.0,6.0,90,0.00,,,0.07,weatherlink.com 1.10,2014-02-02 23:38:00,
2014-02-02 18:53:00,36.1,34.0,30.03,ENE,59,2.0,7.0,90,0.00,,,0.07,weatherlink.com 1.10,2014-02-02 23:53:00,
2014-02-02 19:08:00,36.0,33.0,30.04,East,84,0.0,4.0,90,0.00,,,0.07,weatherlink.com 1.10,2014-02-03 00:08:00,
2014-02-02 19:23:00,35.8,33.0,30.05,NNE,28,1.0,3.0,90,0.00,,,0.07,weatherlink.com 1.10,2014-02-03 00:23:00,
2014-02-02 19:38:00,35.6,33.0,30.05,NNE,28,1.0,2.0,90,0.00,,,0.07,weatherlink.com 1.10,2014-02-03 00:38:00,
2014-02-02 19:53:00,35.3,33.0,30.05,East,84,1.0,3.0,90,0.00,,,0.07,weatherlink.com 1.10,2014-02-03 00:53:00,
2014-02-02 20:08:00,35.5,33.0,30.05,East,100,1.0,2.0,89,0.00,,,0.07,weatherlink.com 1.10,2014-02-03 01:08:00,
2014-02-02 20:23:00,35.6,32.0,30.05,NE,35,2.0,3.0,87,0.00,,,0.07,weatherlink.com 1.10,2014-02-03 01:23:00,
2014-02-02 20:38:00,35.5,32.0,30.06,NE,36,1.0,2.0,87,0.00,,,0.07,weatherlink.com 1.10,2014-02-03 01:38:00,
2014-02-02 20:53:00,35.4,32.0,30.07,NE,53,2.0,3.0,86,0.00,,,0.07,weatherlink.com 1.10,2014-02-03 01:53:00,
2014-02-02 21:08:00,35.3,31.0,30.07,NE,39,1.0,4.0,84,0.00,,,0.07,weatherlink.com 1.10,2014-02-03 02:08:00,
2014-02-02 21:23:00,35.2,31.0,30.08,NE,36,1.0,4.0,83,0.00,,,0.07,weatherlink.com 1.10,2014-02-03 02:23:00,
2014-02-02 21:38:00,35.3,30.0,30.09,NE,49,2.0,5.0,81,0.00,,,0.07,weatherlink.com 1.10,2014-02-03 02:38:00,
2014-02-02 21:53:00,35.2,29.0,30.10,ENE,57,5.0,8.0,78,0.00,,,0.07,weatherlink.com 1.10,2014-02-03 02:53:00,
2014-02-02 22:08:00,35.0,29.0,30.10,NE,37,2.0,5.0,78,0.00,,,0.07,weatherlink.com 1.10,2014-02-03 03:08:00,
2014-02-02 22:23:00,34.4,28.0,30.10,ENE,72,3.0,6.0,78,0.00,,,0.07,weatherlink.com 1.10,2014-02-03 03:23:00,
2014-02-02 22:38:00,34.1,28.0,30.10,NE,56,3.0,9.0,77,0.00,,,0.07,weatherlink.com 1.10,2014-02-03 03:38:00,
2014-02-02 22:53:00,33.9,27.0,30.09,NE,36,2.0,6.0,77,0.00,,,0.07,weatherlink.com 1.10,2014-02-03 03:53:00,
2014-02-02 23:08:00,33.5,27.0,30.11,NE,38,2.0,5.0,77,0.00,,,0.07,weatherlink.com 1.10,2014-02-03 04:08:00,
2014-02-02 23:24:00,33.3,27.0,30.12,NE,38,4.0,8.0,76,0.00,,,0.07,weatherlink.com 1.10,2014-02-03 04:24:00,
2014-02-02 23:39:00,33.4,26.0,30.12,NNE,26,2.0,8.0,75,0.00,,,0.07,weatherlink.com 1.10,2014-02-03 04:39:00,
2014-02-02 23:54:00,33.2,26.0,30.11,NE,36,2.0,6.0,76,0.00,,,0.07,weatherlink.com 1.10,2014-02-03 04:54:00,